2023/01/22 00:00:00,27.6,-2.1
2023/01/22 00:10:00,27.5,-1.9
2023/01/22 00:20:00,27.4,-2.0
2023/01/22 00:30:00,27.5,-2.2
2023/01/22 00:40:00,27.5,-2.4
2023/01/22 00:50:00,27.5,-2.2
2023/01/22 01:00:00,27.4,-2.1
2023/01/22 01:10:00,27.4,-1.9
2023/01/22 01:20:00,27.3,-1.9
2023/01/22 01:30:00,27.3,-1.8
2023/01/22 01:40:00,27.3,-1.4
2023/01/22 01:50:00,27.3,-1.6
2023/01/22 02:00:00,27.3,-1.4
2023/01/22 02:10:00,27.2,-1.3
2023/01/22 02:20:00,27.2,-1.1
2023/01/22 02:30:00,27.2,-1.2
2023/01/22 02:40:00,27.2,-1.1
2023/01/22 02:50:00,27.2,-1.0
2023/01/22 03:00:00,27.1,-0.9
2023/01/22 03:10:00,27.1,-1.0
2023/01/22 03:20:00,27.1,-1.1
2023/01/22 03:30:00,27.1,-1.2
2023/01/22 03:40:00,27.1,-1.3
2023/01/22 03:50:00,27.1,-1.2
2023/01/22 04:00:00,27.1,-1.5
2023/01/22 04:10:00,27.1,-1.8
2023/01/22 04:20:00,27.1,-1.5
2023/01/22 04:30:00,27.1,-1.9
2023/01/22 04:40:00,27.1,-2.2
2023/01/22 04:50:00,27.2,-2.5
2023/01/22 05:00:00,27.2,-2.9
2023/01/22 05:10:00,27.2,-3.1
2023/01/22 05:20:00,27.3,-3.5
2023/01/22 05:30:00,27.4,-3.6
2023/01/22 05:40:00,27.3,-3.8
2023/01/22 05:50:00,27.5,-3.8
2023/01/22 06:00:00,27.6,-4.0
2023/01/22 06:10:00,27.4,-3.9
2023/01/22 06:20:00,27.4,-3.5
2023/01/22 06:30:00,27.3,-3.0
2023/01/22 06:40:00,27.2,-2.5
2023/01/22 06:50:00,27.1,-2.6
2023/01/22 07:00:00,27.1,-2.5
2023/01/22 07:10:00,27.0,-2.3
2023/01/22 07:20:00,27.0,-2.0
2023/01/22 07:30:00,26.9,-1.9
2023/01/22 07:40:00,26.9,-1.6
2023/01/22 07:50:00,26.9,-1.3
2023/01/22 08:00:00,27.0,-1.3
2023/01/22 08:10:00,27.0,-1.1
2023/01/22 08:20:00,27.1,-0.7
2023/01/22 08:30:00,27.2,-0.2
2023/01/22 08:40:00,27.2, 0.0
2023/01/22 08:50:00,27.3, 0.6
2023/01/22 09:00:00,27.3, 0.8
2023/01/22 09:10:00,27.4, 1.2
2023/01/22 09:20:00,27.4, 1.7
2023/01/22 09:30:00,27.4, 2.1
2023/01/22 09:40:00,27.3, 3.3
2023/01/22 09:50:00,27.3, 3.2
2023/01/22 10:00:00,27.3, 2.9
2023/01/22 10:10:00,27.4, 3.7
2023/01/22 10:20:00,27.4, 4.1
2023/01/22 10:30:00,27.3, 4.6
2023/01/22 10:40:00,27.3, 5.0
2023/01/22 10:50:00,27.3, 6.0
2023/01/22 11:00:00,27.4, 5.6
2023/01/22 11:10:00,27.2, 4.9
2023/01/22 11:20:00,27.1, 4.6
2023/01/22 11:30:00,27.1, 4.4
2023/01/22 11:40:00,27.1, 5.0
2023/01/22 11:50:00,26.9, 4.5
2023/01/22 12:00:00,26.8, 4.7
2023/01/22 12:10:00,26.7, 5.9
2023/01/22 12:20:00,26.8, 9.7
2023/01/22 12:30:00,26.4, 8.1
2023/01/22 12:40:00,26.2, 7.3
2023/01/22 12:50:00,26.1, 7.0
2023/01/22 13:00:00,25.9, 7.5
2023/01/22 13:10:00,25.9, 8.1
2023/01/22 13:20:00,25.9, 7.2
2023/01/22 13:30:00,25.8, 7.6
2023/01/22 13:40:00,25.8, 7.2
2023/01/22 13:50:00,25.7, 6.8
2023/01/22 14:00:00,25.8, 8.4
2023/01/22 14:10:00,25.7, 7.2
2023/01/22 14:20:00,25.5, 6.2
2023/01/22 14:30:00,25.5, 5.7
2023/01/22 14:40:00,25.4, 5.6
2023/01/22 14:50:00,25.4, 5.7
2023/01/22 15:00:00,25.3, 6.5
2023/01/22 15:10:00,25.2, 7.0
2023/01/22 15:20:00,25.4, 8.0
2023/01/22 15:30:00,25.1, 7.0
2023/01/22 15:40:00,25.1, 6.6
2023/01/22 15:50:00,25.0, 6.4
2023/01/22 16:00:00,25.0, 5.9
2023/01/22 16:10:00,25.0, 6.1
2023/01/22 16:20:00,24.9, 5.0
2023/01/22 16:30:00,24.9, 4.2
2023/01/22 16:40:00,25.1, 3.8
2023/01/22 16:50:00,25.1, 3.4
2023/01/22 17:00:00,25.0, 3.0
2023/01/22 17:10:00,24.9, 2.7
2023/01/22 17:20:00,24.9, 1.9
2023/01/22 17:30:00,24.9, 2.1
2023/01/22 17:40:00,24.9, 2.2
2023/01/22 17:50:00,24.9, 1.5
2023/01/22 18:00:00,24.8, 1.7
2023/01/22 18:10:00,24.8, 1.6
2023/01/22 18:20:00,24.8, 1.4
2023/01/22 18:30:00,24.8, 1.5
2023/01/22 18:40:00,24.8, 1.1
2023/01/22 18:50:00,24.8, 1.2
2023/01/22 19:00:00,24.8, 1.2
2023/01/22 19:10:00,24.8, 1.2
2023/01/22 19:20:00,24.8, 0.9
2023/01/22 19:30:00,24.7, 0.8
2023/01/22 19:40:00,24.7, 1.1
2023/01/22 19:50:00,24.7, 1.1
2023/01/22 20:00:00,24.7, 1.0
2023/01/22 20:10:00,24.7, 1.0
2023/01/22 20:20:00,24.7, 0.8
2023/01/22 20:30:00,24.7, 0.6
2023/01/22 20:40:00,24.7, 0.8
2023/01/22 20:50:00,24.7, 0.6
2023/01/22 21:00:00,24.7, 0.6
2023/01/22 21:10:00,24.7, 0.6
2023/01/22 21:20:00,24.7, 0.8
2023/01/22 21:30:00,24.7, 0.9
2023/01/22 21:40:00,24.7, 0.3
2023/01/22 21:50:00,24.7, 1.0
2023/01/22 22:00:00,24.7, 1.0
2023/01/22 22:10:00,24.7, 1.0
2023/01/22 22:20:00,24.7, 0.9
2023/01/22 22:30:00,24.7, 1.0
2023/01/22 22:40:00,24.6, 0.6
2023/01/22 22:50:00,24.7, 0.6
2023/01/22 23:00:00,24.7, 0.8
2023/01/22 23:10:00,24.7, 0.8
2023/01/22 23:20:00,24.7, 1.0
2023/01/22 23:30:00,24.7, 0.8
2023/01/22 23:40:00,24.7, 0.7
2023/01/22 23:50:00,24.6, 0.9
